sat.trackr.live / text

‹ back to catalog

TDRS 12

NORAD 39504 · 2014-004A

PAYLOAD ACTIVE UNKNOWN

§ Identity

Operator
Country
US
Launch date
2014-01-24
Launch site
AFETR
Launch vehicle
Mass (kg)
RCS (m²)
7.94

Purposes: comms

External: N2YO · Heavens-Above · Gunter

§ Orbital elements

Epoch: 2026-09-13T01:41:07.286208Z

Period
1,436.12 min
Inclination
4.0698°
Eccentricity
0.0006355
Mean motion
1.00270130 rev/d
Perigee alt
35,760.3 km
Apogee alt
35,813.9 km
Semi-major
42,165.2 km
B*
0.0000e+0
RAAN
20.4307°
Arg perigee
215.6632°
Mean anomaly
100.3361°
Rev number
4,515

§ Raw data

TDRS 121 39504U 14004A   26256.07022322 -.00000280  00000+0  00000+0 0  99982 39504   4.0698  20.4307 0006355 215.6632 100.3361  1.00270130 45153

JSON: /api/v1/satellites/39504 · /tle

For live sub-satellite position, see the globe view (requires WebGL).

§ Visibility from observer

Set your observer location to see the next 7 days of passes ≥ 10°. The values pass through the URL so the page stays shareable.

No JS? Fill the form by hand. The geolocation button needs JavaScript.